{"data":{"norad_id":68830,"epoch":"2026-09-20T03:37:57.725184Z","epoch_age_seconds":85392,"freshness":"FRESH","line1":"1 68830U 26067CW  26263.15136256  .00004681  00000+0  21998-3 0  9994","line2":"2 68830  97.4624 220.4592 0004200 116.8630 243.3035 15.20084084 66918","mean_motion":15.20084084,"eccentricity":0.00042,"inclination_deg":97.4624,"raan_deg":220.4592,"arg_perigee_deg":116.863,"mean_anomaly_deg":243.3035,"bstar":0.00021998,"rev_number":6691,"period_min":94.731601702633,"perigee_km":502.69558762091,"apogee_km":508.47791557225,"semimajor_km":6883.7237515966,"source":"CELESTRAK","updated_at":"2026-09-20T09:00:24.495252Z"}}